Regional Weather Roundup
Issued by NWS Wilmington, NC

Home | Current Version | Previous Version | Text Only | Print | Product List | Glossary On
Versions: 1 2 3 4 5 6 7 8 9 10 11 12 13 14 15 16 17 18 19 20 21 22 23 24 25 26 27
000
ASUS42 KILM 162112
RWRILM
RWRILM
REGIONAL HOURLY WEATHER ROUNDUP
NATIONAL WEATHER SERVICE WILMINGTON NC
400 PM EST MON JAN 16 2017

NOTE: "FAIR" INDICATES FEW OR NO CLOUDS BELOW 12,000 FEET WITH NO
SIGNIFICANT WEATHER AND/OR OBSTRUCTIONS TO VISIBILITY.

...............WFO WILMINGTON COUNTY WARNING AREA...............

......COASTAL NC AND SC COUNTIES......

CITY           SKY/WX    TMP DP  RH WIND       PRES   REMARKS
WILMINGTON     CLOUDY    57  47  69 NE6       30.35S
N MYRTLE BEACH CLOUDY    60  52  74 NE6       30.33S
MYRTLE BEACH   CLOUDY    61  52  72 E8        30.36R

......INLAND NC AND SC COUNTIES.......

CITY           SKY/WX    TMP DP  RH WIND       PRES   REMARKS
LUMBERTON      CLOUDY    54  46  74 NE5       30.35R
ELIZABETHTOWN  PTSUNNY   54  45  72 NE3       30.36R HAZE
WHITEVILLE     CLOUDY    55  47  72 CALM      30.35R
FLORENCE       CLOUDY    53  51  93 NE5       30.35S FOG
DARLINGTON     CLOUDY    52  48  87 CALM      30.36R FOG
KINGSTREE      CLOUDY    54  52  94 NE3       30.34S
HARTSVILLE     CLOUDY    50  46  87 CALM      30.35R
BENNETTSVILLE  CLOUDY    54  50  87 N3        30.35S
CONWAY         CLOUDY    59  52  77 CALM      30.34S HAZE
GEORGETOWN     CLOUDY    55  52  88 NE5       30.34S
MARION         CLOUDY    54  48  82 NE3       30.35S HAZE

....................REST OF NORTH CAROLINA......................

.........EASTERN NC.........

CITY           SKY/WX    TMP DP  RH WIND       PRES   REMARKS
CAPE HATTERAS  CLOUDY    50  42  74 NE8       30.36F
JACKSONVILLE   CLOUDY    54  44  69 CALM      30.37R
MOREHEAD CITY  CLOUDY    53  45  74 NE9       30.36S
KENANSVILLE    CLOUDY    54  41  62 CALM      30.37S
NEW BERN       CLOUDY    54  42  64 NE6       30.37S
ELIZABETH CITY CLOUDY    48  39  71 E5        30.38F

.........CENTRAL NC.........

CITY           SKY/WX    TMP DP  RH WIND       PRES   REMARKS
RALEIGH DURHAM CLOUDY    51  30  44 E3        30.36S
ROCKY MOUNT    CLOUDY    49  39  68 CALM      30.37F
ROANOKE RAPIDS NOT AVBL
FAYETTEVILLE   CLOUDY    53  43  68 SE6       30.36R
HOFFMAN        CLOUDY    53  46  75 CALM      30.35R

.........WESTERN NC.........

CITY           SKY/WX    TMP DP  RH WIND       PRES   REMARKS
CHARLOTTE      CLOUDY    53  46  77 NE5       30.34S
GREENSBORO     CLOUDY    53  43  68 CALM      30.32F
HICKORY        NOT AVBL
BOONE          NOT AVBL
ASHEVILLE      NOT AVBL

.....................REST OF SOUTH CAROLINA.....................

.........EASTERN SC.........

CITY           SKY/WX    TMP DP  RH WIND       PRES   REMARKS
CHARLESTON     CLOUDY    63  57  81 NE7       30.31R
BEAUFORT MCAS  PTSUNNY   68  60  75 E7        30.29S
HILTON HEAD      N/A     63  57  82 NE5       30.31R FOG

.........CENTRAL SC.........

CITY           SKY/WX    TMP DP  RH WIND       PRES   REMARKS
COLUMBIA       CLOUDY    57  53  86 E7        30.32S
ORANGEBURG     CLOUDY    58  55  90 NE7       30.32R
SUMTER SHAW    CLOUDY    54  51  89 NE7       30.31F

.........WESTERN SC.........

CITY           SKY/WX    TMP DP  RH WIND       PRES   REMARKS
GREENVILLE     NOT AVBL
ROCK HILL      CLOUDY    57  48  72 VRB3      30.33S
ANDERSON       CLOUDY    58  52  80 NE6       30.30S
CLEMSON        NOT AVBL
GREENWOOD      CLOUDY    56  52  86 E6        30.32S FOG


...................COASTAL AND OFFSHORE REPORTS..................

................LOCAL PIERS AND NC RESERVE................


STATION/POSITION TIME  SKY/WX   TEMP    WIND        PRES    VSBY
                                AIR SEA DIR/SP/G
                 (UTC)          (F)     (DEG/KT/KT) (MB)    (MI)
JOHNY MRCER PIER 2042            52 54   40/  4/  6 1026.6R
NC RESRV MASNBRO 1945            53      80/  6     1026.0
OCEAN CREST PIER NOT AVBL
SPRINGMAID  PIER NOT AVBL


................COASTAL AND OFFSHORE BUOYS................


STATION/POSITION TIME  SKY/WX   TEMP    WIND        PRES    VSBY
                                AIR SEA DIR/SP/G
                 (UTC)          (F)     (DEG/KT/KT) (MB)    (MI)
DIMNDSHOAL 41025 2050            55 74   10/ 16/ 19 1027.6F
WVE H/P(F/S)=  4/ 8 SWL H/P/D(F/S/D)=  3/ 60/ 8

CAPE LOOKOUT     2000            52      30/ 16/ 18 1027.4F
ONSLOW BAY 41036 NOT AVBL
ONSLOW BAY 41064 2008            54 63   40/ 14/ 17 1027.6R
ONSLOW BAY 41159 2043               63                N/A
WVE H/P(F/S)=  4/10 SWL H/P/D(F/S/D)=  2/120/11

MASNBO INL 41110 2059               53                N/A
WVE H/P(F/S)=  3/11

WILM HARBR 41108 2056               55                N/A
WVE H/P(F/S)=  3/ 4

27SE WRITB 41037 2008            58 69   60/ 14/ 19 1027.0S
FRYING PAN 41013 2050            64 70   40/ 14/ 16 1026.5F
WVE H/P(F/S)=  4/ 6 SWL H/P/D(F/S/D)=  2/ 80/ 7

SUNST NRSH 41024 2008            56 55   50/  4/  6 1026.9F
CAPRS NRSH 41029 2008            53 54   40/ 12/ 17 1026.7R
EDISTO     41004 1950            67 71   40/ 14/ 16 1025.3
WVE H/P(F/S)=  5/ 5 SWL H/P/D(F/S/D)=  3/120/ 8



..........OFFSHORE BUOYS BEYOND 100 NM OFFSHORE...........
.....IN A TRIANGLE---HAT TO BERMUDA TO BAHAMAS TO HAT.....


STATION/POSITION TIME  SKY/WX   TEMP    WIND        PRES    VSBY
                                AIR SEA DIR/SP/G
                 (UTC)          (F)     (DEG/KT/KT) (MB)    (MI)
150E HAT   41001 NOT AVBL
W BERMUDA  41048 2050            66 70   30/ 10/ 12 1026.6R
WVE H/P(F/S)=  5/ 8 SWL H/P/D(F/S/D)=  5/ 20/ 8

ATLANTIC S 41049 2050            70 74   30/ 16/ 17 1022.3R
WVE H/P(F/S)=  4/ 8 SWL H/P/D(F/S/D)=  3/ 40/ 8

E BAHAMAS  41046 2050            76 78   60/ 16/ 21 1021.3R
WVE H/P(F/S)=  7/11 SWL H/P/D(F/S/D)=  3/11

NE BAHAMAS 41047 2050            72 74   50/ 10/ 12 1024.3R
WVE H/P(F/S)=  5/10 SWL H/P/D(F/S/D)=  5/ 80/10

120E CANVRL41010 NOT AVBL

END




USA.gov is the U.S. government's official web portal to all federal, state and local government web resources and services.